GW5374 Weather Reports


time (UTC)temp
F
wind
direction
speed
knots
gust
knots
rain 1hr
in
rain 24hr
in
rain mn
in
humidity
%
barometer
mb
20260505000501 79 263 0.9 1.7 0.00 0.00 0.00 63 1009.4
20260505000003 79 241 0.9 2.6 0.00 0.00 0.00 62 1009.4
20260504235503 79 262 0.9 2.6 0.00 0.00 0.00 62 1009.6
20260504235003 79 200 0.9 2.6 0.00 0.00 0.00 62 1009.7
20260504234504 79 220 0.9 7.0 0.00 0.00 0.00 62 1009.7
20260504234002 79 234 1.7 7.0 0.00 0.00 0.00 61 1009.9
20260504233504 79 213 0.9 1.7 0.00 0.00 0.00 61 1009.9
20260504233012 79 219 0.9 5.2 0.00 0.00 0.00 61 1009.9
20260504232503 80 284 0.9 5.2 0.00 0.00 0.00 60 1009.9
20260504232004 80 261 0.9 4.3 0.00 0.00 0.00 61 1010.0
20260504231510 80 159 0.9 4.3 0.00 0.00 0.00 61 1010.0
20260504231003 80 247 0.9 7.0 0.00 0.00 0.00 60 1010.0
20260504230502 80 229 0.9 7.0 0.00 0.00 0.00 60 1010.0
20260504230002 81 207 0.9 7.0 0.00 0.00 0.00 60 1010.2
20260504225502 81 229 1.7 8.7 0.00 0.00 0.00 61 1010.2
20260504225004 81 223 0.9 8.7 0.00 0.00 0.00 61 1010.2
20260504224508 81 194 1.7 6.1 0.00 0.00 0.00 61 1010.3
20260504224003 81 223 1.7 6.1 0.00 0.00 0.00 60 1010.4
20260504223503 81 238 0.9 6.1 0.00 0.00 0.00 59 1010.4
20260504223004 81 215 0.9 6.1 0.00 0.00 0.00 60 1010.2
20260504222503 81 213 0.0 4.3 0.00 0.00 0.00 61 1010.4
20260504222003 80 159 0.9 7.8 0.00 0.00 0.00 61 1010.4
20260504221507 80 214 0.9 9.6 0.00 0.00 0.00 60 1010.5
20260504221003 81 314 1.7 9.6 0.00 0.00 0.00 60 1010.5
20260504220505 81 224 1.7 6.1 0.00 0.00 0.00 59 1010.6
20260504220012 81 207 0.9 2.6 0.00 0.00 0.00 60 1010.6
20260504215505 82 179 0.0 2.6 0.00 0.00 0.00 62 1010.6
20260504215002 81 246 0.0 6.1 0.00 0.00 0.00 60 1010.5
20260504214503 81 215 1.7 12.2 0.00 0.00 0.00 60 1010.5
20260504214003 80 249 0.9 12.2 0.00 0.00 0.00 60 1010.6
20260504213503 81 255 0.9 3.5 0.00 0.00 0.00 60 1010.8
20260504213003 81 186 0.9 4.3 0.00 0.00 0.00 61 1011.0
20260504212502 81 229 0.9 4.3 0.00 0.00 0.00 61 1011.1
20260504212005 81 236 0.9 7.0 0.00 0.00 0.00 60 1011.2
20260504211508 81 266 0.9 7.0 0.00 0.00 0.00 60 1011.2
20260504211005 81 172 0.0 5.2 0.00 0.00 0.00 61 1011.2
20260504210503 81 229 1.7 5.2 0.00 0.00 0.00 61 1011.4
20260504210015 80 191 0.9 2.6 0.00 0.00 0.00 61 1011.5
20260504205506 80 244 0.9 5.2 0.00 0.00 0.00 61 1011.5
20260504205008 79 175 1.7 5.2 0.00 0.00 0.00 61 1011.6
20260504204514 79 213 1.7 6.1 0.00 0.00 0.00 60 1011.7
20260504204004 79 203 0.9 6.1 0.00 0.00 0.00 61 1011.6
20260504203502 79 197 0.9 4.3 0.00 0.00 0.00 61 1011.7
20260504203004 79 224 0.9 5.2 0.00 0.00 0.00 60 1012.0
20260504202506 80 234 0.9 5.2 0.00 0.00 0.00 60 1012.0
20260504202004 80 210 0.9 2.6 0.00 0.00 0.00 59 1012.1
20260504201505 80 207 0.9 2.6 0.00 0.00 0.00 60 1012.3
20260504201003 80 173 0.9 3.5 0.00 0.00 0.00 60 1012.3
20260504200503 80 279 0.9 3.5 0.00 0.00 0.00 59 1012.4
20260504200014 80 244 0.9 2.6 0.00 0.00 0.00 59 1012.4
20260504195503 80 286 0.9 2.6 0.00 0.00 0.00 59 1012.7
20260504195007 80 238 0.0 5.2 0.00 0.00 0.00 61 1012.6
20260504194516 80 215 0.9 5.2 0.00 0.00 0.00 61 1012.8
20260504194007 80 201 0.9 3.5 0.00 0.00 0.00 60 1012.9
20260504193511 80 297 0.9 2.6 0.00 0.00 0.00 59 1012.9
20260504193018 80 238 0.9 2.6 0.00 0.00 0.00 60 1013.0
20260504192503 80 266 0.9 1.7 0.00 0.00 0.00 61 1013.0
20260504192007 79 202 0.9 2.6 0.00 0.00 0.00 60 1013.1
20260504191504 79 258 1.7 3.5 0.00 0.00 0.00 60 1013.2
20260504191002 79 195 0.9 3.5 0.00 0.00 0.00 62 1013.3
20260504190508 78 234 0.9 2.6 0.00 0.00 0.00 61 1013.3
20260504190007 78 201 0.9 2.6 0.00 0.00 0.00 62 1013.4
20260504185504 78 244 0.9 6.1 0.00 0.00 0.00 61 1013.3
20260504185005 78 264 0.9 6.1 0.00 0.00 0.00 62 1013.4
20260504184515 78 224 0.9 2.6 0.00 0.00 0.00 63 1013.4
20260504184007 77 247 0.9 4.3 0.00 0.00 0.00 63 1013.5
20260504183510 77 243 0.9 6.1 0.00 0.00 0.00 63 1013.5
20260504183024 77 209 0.9 7.0 0.00 0.00 0.00 64 1013.8
20260504182505 77 211 2.6 7.0 0.00 0.00 0.00 63 1013.9
20260504182008 77 311 0.9 2.6 0.00 0.00 0.00 65 1014.0
20260504181504 77 268 0.9 7.0 0.00 0.00 0.00 64 1014.2
20260504181004 76 243 0.9 7.0 0.00 0.00 0.00 65 1014.0
20260504180504 76 209 0.9 5.2 0.00 0.00 0.00 66 1014.1
20260504180004 76 323 0.9 7.0 0.00 0.00 0.00 65 1014.1
20260504175504 76 248 0.9 7.0 0.00 0.00 0.00 66 1014.2
20260504175005 75 273 0.9 5.2 0.00 0.00 0.00 68 1014.3
20260504174507 74 298 0.9 2.6 0.00 0.00 0.00 68 1014.4
20260504174003 74 265 0.9 2.6 0.00 0.00 0.00 68 1014.5
20260504173506 74 220 0.9 2.6 0.00 0.00 0.00 68 1014.7
20260504173014 73 220 0.9 2.6 0.00 0.00 0.00 68 1014.9
20260504172509 73 306 0.9 2.6 0.00 0.00 0.00 70 1014.9
20260504172006 73 292 0.9 1.7 0.00 0.00 0.00 69 1015.1
20260504171521 73 279 0.9 1.7 0.00 0.00 0.00 71 1015.3
20260504171011 73 275 0.0 1.7 0.00 0.00 0.00 70 1015.4
20260504170505 73 224 0.0 2.6 0.00 0.00 0.00 70 1015.2
20260504151007 71 221 0.9 4.3 0.00 0.00 0.00 71 1015.8
20260504150511 70 289 0.9 3.5 0.00 0.00 0.00 71 1015.7
20260504141008 67 228 0.9 5.2 0.00 0.00 0.00 74 1015.9
20260504140507 66 271 0.9 5.2 0.00 0.00 0.00 75 1015.9
20260504130504 62 204 0.0 2.6 0.00 0.00 0.00 81 1015.8
20260504110504 60 221 0.0 1.7 0.00 0.00 0.00 80 1015.6
20260504100507 61 185 0.0 1.7 0.00 0.00 0.00 78 1015.5
20260504082002 62 209 0.9 1.7 0.00 0.00 0.00 75 1015.8
20260504081504 62 184 0.9 1.7 0.00 0.00 0.00 75 1015.9
20260504081002 63 208 0.0 1.7 0.00 0.00 0.00 75 1016.0
20260504080507 63 221 0.0 2.6 0.00 0.00 0.00 75 1016.0
20260504050506 65 196 0.0 5.2 0.00 0.00 0.00 65 1018.4
20260504050022 65 208 0.9 5.2 0.00 0.00 0.00 65 1018.2
20260504045506 65 204 0.9 1.7 0.00 0.00 0.00 64 1018.3
20260504045014 65 232 0.0 3.5 0.00 0.00 0.00 64 1018.3
20260504044511 65 182 0.9 3.5 0.00 0.00 0.00 64 1018.4
20260504044003 65 190 0.9 3.5 0.00 0.00 0.00 63 1018.4
20260504043503 66 222 0.0 3.5 0.00 0.00 0.00 62 1018.5
20260504043013 66 232 0.0 4.3 0.00 0.00 0.00 61 1018.4
20260504042506 66 157 0.9 5.2 0.00 0.00 0.00 61 1018.4
20260504042005 66 213 0.9 5.2 0.00 0.00 0.00 60 1018.5
20260504041517 66 204 0.0 5.2 0.00 0.00 0.00 59 1018.6
20260504041005 67 188 0.9 5.2 0.00 0.00 0.00 58 1018.6
20260504040506 67 202 0.9 2.6 0.00 0.00 0.00 57 1018.6
20260504040020 67 149 0.0 3.5 0.00 0.00 0.00 57 1018.6
20260504035507 67 205 0.9 3.5 0.00 0.00 0.00 57 1018.6
20260504035010 67 196 0.9 2.6 0.00 0.00 0.00 56 1018.5
20260504034523 66 211 0.0 2.6 0.00 0.00 0.00 58 1018.5
20260504034010 65 184 0.0 2.6 0.00 0.00 0.00 61 1018.5
20260504033509 65 188 0.0 1.7 0.00 0.00 0.00 62 1018.4
20260504033012 65 188 0.0 1.7 0.00 0.00 0.00 62 1018.3
20260504032505 65 188 0.0 1.7 0.00 0.00 0.00 61 1018.3
20260504032005 64 188 0.0 0.9 0.00 0.00 0.00 62 1018.2
20260504031506 64 188 0.0 0.0 0.00 0.00 0.00 62 1018.4
20260504031001 64 188 0.0 0.0 0.00 0.00 0.00 62 1018.3
20260504030502 64 188 0.0 0.0 0.00 0.00 0.00 62 1018.3
20260504030003 64 188 0.0 0.0 0.00 0.00 0.00 61 1018.3
20260504025502 65 188 0.0 0.0 0.00 0.00 0.00 61 1018.3
20260504025004 65 188 0.0 0.0 0.00 0.00 0.00 62 1018.2
20260504024502 65 188 0.0 0.0 0.00 0.00 0.00 60 1018.3
20260504024001 65 188 0.0 0.0 0.00 0.00 0.00 60 1018.3
20260504023502 65 188 0.0 0.0 0.00 0.00 0.00 60 1018.2
20260504023008 65 188 0.0 0.0 0.00 0.00 0.00 59 1018.0
20260504022505 66 188 0.0 0.0 0.00 0.00 0.00 58 1018.2
20260504022004 66 188 0.0 0.0 0.00 0.00 0.00 57 1018.2
20260504021515 66 188 0.0 0.0 0.00 0.00 0.00 56 1018.3
20260504021005 66 188 0.0 0.0 0.00 0.00 0.00 55 1018.2
20260504020505 67 188 0.0 0.0 0.00 0.00 0.00 54 1018.2
20260504020003 67 188 0.0 0.0 0.00 0.00 0.00 53 1018.1
20260504015502 68 188 0.0 0.9 0.00 0.00 0.00 53 1017.9
20260504015001 68 188 0.0 1.7 0.00 0.00 0.00 52 1017.7
20260504014503 68 188 0.0 1.7 0.00 0.00 0.00 52 1017.7
20260504014002 69 193 0.0 0.0 0.00 0.00 0.00 51 1017.6
20260504013503 69 193 0.0 0.0 0.00 0.00 0.00 50 1017.6
20260504013007 69 193 0.0 1.7 0.00 0.00 0.00 50 1017.6
20260504012503 70 193 0.0 1.7 0.00 0.00 0.00 49 1017.6
20260504012003 70 167 0.0 0.0 0.00 0.00 0.00 48 1017.6
20260504011511 71 167 0.0 2.6 0.00 0.00 0.00 46 1017.6
20260504011002 71 167 0.0 2.6 0.00 0.00 0.00 45 1017.7
20260504010506 72 167 0.0 2.6 0.00 0.00 0.00 44 1017.7
20260504010015 72 167 0.0 2.6 0.00 0.00 0.00 43 1017.7
20260504005507 72 167 0.0 4.3 0.00 0.00 0.00 43 1017.6
20260504005006 72 194 0.9 4.3 0.00 0.00 0.00 43 1017.6
20260504004511 73 225 0.0 1.7 0.00 0.00 0.00 43 1017.6
20260504004003 73 186 0.0 1.7 0.00 0.00 0.00 43 1017.6
20260504003501 73 186 0.0 1.7 0.00 0.00 0.00 43 1017.6
20260504003003 73 253 0.0 1.7 0.00 0.00 0.00 42 1017.7
20260504002503 74 184 0.0 1.7 0.00 0.00 0.00 41 1017.7
20260504002003 74 205 0.0 1.7 0.00 0.00 0.00 42 1017.8
20260504001519 74 205 0.0 1.7 0.00 0.00 0.00 41 1018.0
20260504001003 74 167 0.0 1.7 0.00 0.00 0.00 42 1017.9